KD8DNS Weather Reports


time (UTC)temp
C
wind
direction
speed
KPH
gust
KPH
rain 1hr
cm
rain 24hr
cm
rain mn
cm
humidity
%
barometer
mb
20260503054855 -17 8 0.0 0.0 0.00 0.00 0.00 1020.5
20260503054350 -17 9 0.0 0.0 0.00 0.00 0.00 1020.8
20260503053849 -17 6 0.0 0.0 0.00 0.00 0.00 1020.8
20260503053347 -17 8 0.0 0.0 0.00 0.00 0.00 1021.0
20260503052842 -17 9 0.0 0.0 0.00 0.00 0.00 1021.1
20260503052340 -17 9 0.0 0.0 0.00 0.00 0.00 1021.2
20260503051836 -17 9 0.0 0.0 0.00 0.00 0.00 1020.8
20260503051332 -17 9 0.0 0.0 0.00 0.00 0.00 1020.9
20260503050830 -17 6 0.0 1.6 0.00 0.00 0.00 1021.0
20260503050326 -17 7 0.0 0.0 0.00 0.00 0.00 1021.0
20260503045823 -17 7 0.0 0.0 0.00 0.00 0.00 1020.9
20260503045321 -17 7 0.0 0.0 0.00 0.00 0.00 1020.8
20260503044817 -17 7 0.0 0.0 0.00 0.00 0.00 1021.0
20260503044314 -17 7 0.0 1.6 0.00 0.00 0.00 1020.9
20260503043811 -17 10 0.0 0.0 0.00 0.00 0.00 1021.0
20260503043308 -17 8 0.0 0.0 0.00 0.00 0.00 1020.8
20260503042804 -17 5 0.0 0.0 0.00 0.00 0.00 1020.8
20260503042301 -17 10 0.0 0.0 0.00 0.00 0.00 1020.9
20260503041756 -17 11 0.0 0.0 0.00 0.00 0.00 1020.9
20260503041255 -17 10 0.0 0.0 0.00 0.00 0.00 1020.8
20260503040752 -17 11 0.0 0.0 0.00 0.00 0.00 1020.9
20260503040250 -17 11 0.0 0.0 0.00 0.00 0.00 1020.8
20260503035746 -17 12 0.0 0.0 0.00 0.00 0.00 1021.0
20260503035244 -17 15 0.0 0.0 0.00 0.00 0.00 1021.0
20260503034741 -17 15 0.0 0.0 0.00 0.00 0.00 1021.0
20260503034238 -17 20 0.0 0.0 0.00 0.00 0.00 1020.8
20260503033735 -17 20 0.0 0.0 0.00 0.00 0.00 1020.9
20260503033232 -17 20 0.0 0.0 0.00 0.00 0.00 1020.9
20260503032731 -17 20 0.0 0.0 0.00 0.00 0.00 1020.8
20260503032229 -17 20 0.0 0.0 0.00 0.00 0.00 1020.8
20260503031725 -17 20 0.0 0.0 0.00 0.00 0.00 1021.0
20260503031224 -17 20 0.0 0.0 0.00 0.00 0.00 1020.8
20260503030720 -17 20 0.0 0.0 0.00 0.00 0.00 1020.9
20260503030216 -17 22 0.0 0.0 0.00 0.00 0.00 1021.0
20260503025713 -17 22 0.0 0.0 0.00 0.00 0.00 1021.0
20260503025206 -17 22 0.0 0.0 0.00 0.00 0.00 1021.1
20260503024702 -17 22 0.0 0.0 0.00 0.00 0.00 1020.9
20260503024200 -17 22 0.0 0.0 0.00 0.00 0.00 1020.8
20260503023656 -17 22 0.0 0.0 0.00 0.00 0.00 1020.9
20260503023153 -17 22 0.0 0.0 0.00 0.00 0.00 1020.8
20260503022649 -17 22 0.0 0.0 0.00 0.00 0.00 1021.0
20260503022149 -17 22 0.0 0.0 0.00 0.00 0.00 1020.9
20260503021646 -17 23 0.0 0.0 0.00 0.00 0.00 1020.9
20260503021143 -17 23 0.0 0.0 0.00 0.00 0.00 1020.9
20260503020640 -17 22 0.0 0.0 0.00 0.00 0.00 1020.6
20260503020137 -17 22 0.0 0.0 0.00 0.00 0.00 1020.8
20260503015634 -17 22 0.0 0.0 0.00 0.00 0.00 1021.0
20260503015131 -17 22 0.0 0.0 0.00 0.00 0.00 1020.8
20260503014627 -17 22 0.0 0.0 0.00 0.00 0.00 1020.6
20260503014125 -17 23 0.0 0.0 0.00 0.00 0.00 1020.4
20260503013622 -17 24 0.0 0.0 0.00 0.00 0.00 1020.4
20260503013120 -17 27 0.0 0.0 0.00 0.00 0.00 1020.4
20260503012617 -17 24 0.0 0.0 0.00 0.00 0.00 1020.5
20260503012113 -17 24 0.0 0.0 0.00 0.00 0.00 1020.3
20260503011610 -17 23 0.0 0.0 0.00 0.00 0.00 1020.3
20260503011107 -17 25 0.0 0.0 0.00 0.00 0.00 1020.2
20260503010603 -17 27 0.0 3.2 0.00 0.00 0.00 1020.2
20260503005557 -17 353 0.0 1.6 0.00 0.00 0.00 1020.1
20260503005055 -17 30 1.6 3.2 0.00 0.00 0.00 1019.8
20260503004551 -17 29 0.0 3.2 0.00 0.00 0.00 1020.0
20260503004050 -17 28 0.0 3.2 0.00 0.00 0.00 1020.2
20260503003545 -17 26 0.0 1.6 0.00 0.00 0.00 1020.2
20260503003043 -17 35 1.6 1.6 0.00 0.00 0.00 1019.9
20260503002540 -17 50 0.0 3.2 0.00 0.00 0.00 1019.8
20260503002037 -17 42 1.6 4.8 0.00 0.00 0.00 1019.8
20260503001533 -17 31 0.0 1.6 0.00 0.00 0.00 1019.7
20260503001031 -17 34 1.6 3.2 0.00 0.00 0.00 1019.7
20260503000528 -17 28 1.6 3.2 0.00 0.00 0.00 1019.7
20260503000025 -17 35 3.2 4.8 0.00 0.00 0.00 1019.8
20260502235521 -17 65 1.6 3.2 0.00 0.00 0.00 1019.7
20260502235019 -17 58 3.2 8.0 0.00 0.00 0.00 1019.7
20260502234515 -17 52 3.2 9.7 0.00 0.00 0.00 1019.5
20260502234012 -17 69 0.0 4.8 0.00 0.00 0.00 1019.7
20260502233507 -17 75 1.6 3.2 0.00 0.00 0.00 1019.6
20260502233004 -17 28 1.6 3.2 0.00 0.00 0.00 1019.5
20260502232501 -17 50 1.6 4.8 0.00 0.00 0.00 1019.6
20260502231957 -17 35 3.2 8.0 0.00 0.00 0.00 1019.2
20260502231455 -17 62 1.6 9.7 0.00 0.00 0.00 1019.5
20260502230953 -17 88 4.8 8.0 0.00 0.00 0.00 1019.6
20260502230450 -17 358 1.6 8.0 0.00 0.00 0.00 1019.4
20260502225948 -17 36 3.2 4.8 0.00 0.00 0.00 1019.4
20260502225444 -17 78 0.0 8.0 0.00 0.00 0.00 1019.6
20260502224941 -17 125 3.2 3.2 0.00 0.00 0.00 1019.3
20260502224437 -17 60 4.8 8.0 0.00 0.00 0.00 1019.6
20260502223934 -17 112 1.6 4.8 0.00 0.00 0.00 1019.2
20260502223432 -17 66 1.6 8.0 0.00 0.00 0.00 1019.3
20260502222930 -17 73 4.8 8.0 0.00 0.00 0.00 1019.2
20260502222427 -17 31 0.0 4.8 0.00 0.00 0.00 1019.3
20260502221922 -17 48 1.6 4.8 0.00 0.00 0.00 1019.3
20260502221419 -17 348 0.0 3.2 0.00 0.00 0.00 1019.3
20260502220916 -17 23 6.4 8.0 0.00 0.00 0.00 1019.4
20260502220412 -17 29 3.2 4.8 0.00 0.00 0.00 1019.2
20260502215909 -17 68 4.8 8.0 0.00 0.00 0.00 1019.0
20260502215406 -17 41 3.2 4.8 0.00 0.00 0.00 1019.5
20260502214903 -17 56 3.2 3.2 0.00 0.00 0.00 1019.3
20260502214359 -17 48 3.2 12.9 0.00 0.00 0.00 1019.0
20260502213857 -17 339 3.2 8.0 0.00 0.00 0.00 1019.2
20260502213354 -17 37 9.7 11.3 0.00 0.00 0.00 1019.0
20260502212853 -17 27 0.0 3.2 0.00 0.00 0.00 1018.9
20260502212351 -17 351 4.8 4.8 0.00 0.00 0.00 1019.0
20260502211848 -17 96 4.8 8.0 0.00 0.00 0.00 1018.7
20260502211343 -17 90 4.8 4.8 0.00 0.00 0.00 1018.9
20260502210841 -17 119 3.2 8.0 0.00 0.00 0.00 1018.7
20260502210338 -17 18 1.6 8.0 0.00 0.00 0.00 1018.8
20260502205835 -17 31 3.2 8.0 0.00 0.00 0.00 1018.9
20260502205331 -17 61 1.6 3.2 0.00 0.00 0.00 1018.9
20260502204828 -17 65 1.6 4.8 0.00 0.00 0.00 1018.9
20260502204326 -17 114 3.2 4.8 0.00 0.00 0.00 1018.8
20260502203823 -17 262 1.6 4.8 0.00 0.00 0.00 1018.9
20260502203320 -17 143 3.2 3.2 0.00 0.00 0.00 1019.0
20260502202815 -17 123 3.2 9.7 0.00 0.00 0.00 1019.0
20260502202313 -17 69 8.0 11.3 0.00 0.00 0.00 1018.8
20260502201811 -17 28 1.6 4.8 0.00 0.00 0.00 1018.8
20260502201306 -17 32 3.2 11.3 0.00 0.00 0.00 1019.0
20260502200803 -17 74 3.2 4.8 0.00 0.00 0.00 1019.1
20260502200259 -17 64 1.6 3.2 0.00 0.00 0.00 1019.2
20260502195757 -17 96 3.2 8.0 0.00 0.00 0.00 1019.1
20260502195254 -17 54 3.2 11.3 0.00 0.00 0.00 1019.2
20260502194750 -17 74 1.6 8.0 0.00 0.00 0.00 1019.3
20260502194247 -17 80 3.2 4.8 0.00 0.00 0.00 1019.2
20260502193743 -17 17 3.2 8.0 0.00 0.00 0.00 1019.3
20260502193241 -17 19 1.6 3.2 0.00 0.00 0.00 1019.1
20260502192741 -17 70 4.8 9.7 0.00 0.00 0.00 1019.2
20260502192238 -17 227 3.2 11.3 0.00 0.00 0.00 1019.5
20260502191735 -17 59 4.8 9.7 0.00 0.00 0.00 1019.2
20260502191233 -17 65 3.2 4.8 0.00 0.00 0.00 1019.4
20260502190730 -17 95 3.2 8.0 0.00 0.00 0.00 1019.5
20260502190227 -17 353 4.8 11.3 0.00 0.00 0.00 1019.4
20260502185727 -17 7 0.0 3.2 0.00 0.00 0.00 1019.5
20260502185224 -17 107 3.2 8.0 0.00 0.00 0.00 1019.5
20260502184720 -17 121 6.4 9.7 0.00 0.00 0.00 1019.6
20260502184216 -17 15 3.2 4.8 0.00 0.00 0.00 1019.3
20260502183713 -17 345 9.7 12.9 0.00 0.00 0.00 1019.7
20260502183209 -17 340 4.8 9.7 0.00 0.00 0.00 1019.6
20260502182704 -17 99 3.2 14.5 0.00 0.00 0.00 1019.6
20260502182200 -17 124 4.8 16.1 0.00 0.00 0.00 1019.6
20260502181657 -17 339 3.2 12.9 0.00 0.00 0.00 1019.6
20260502181156 -17 346 4.8 9.7 0.00 0.00 0.00 1019.6
20260502180653 -17 84 6.4 9.7 0.00 0.00 0.00 1019.7
20260502180150 -17 329 4.8 11.3 0.00 0.00 0.00 1019.8
20260502170114 -17 355 3.2 9.7 0.00 0.00 0.00 1019.9
20260502164101 -17 4 4.8 8.0 0.00 0.00 0.00 1020.1
20260502163556 -17 298 1.6 8.0 0.00 0.00 0.00 1020.3
20260502163054 -17 80 1.6 4.8 0.00 0.00 0.00 1020.1
20260502162550 -17 345 4.8 12.9 0.00 0.00 0.00 1020.1
20260502162048 -17 97 8.0 9.7 0.00 0.00 0.00 1020.4
20260502161544 -17 19 4.8 8.0 0.00 0.00 0.00 1020.2
20260502161042 -17 12 1.6 9.7 0.00 0.00 0.00 1020.3
20260502160540 -17 91 1.6 8.0 0.00 0.00 0.00 1020.6
20260502151953 -17 66 4.8 9.7 0.00 0.00 0.00 1020.5
20260502151449 -17 64 4.8 11.3 0.00 0.00 0.00 1020.2
20260502150947 -17 48 1.6 9.7 0.00 0.00 0.00 1020.3
20260502150444 -17 31 3.2 4.8 0.00 0.00 0.00 1020.4
20260502130329 -17 20 3.2 9.7 0.00 0.00 0.00 1020.3
20260502123815 -17 28 1.6 8.0 0.00 0.00 0.00 1020.1
20260502123312 -17 32 1.6 4.8 0.00 0.00 0.00 1020.0
20260502122809 -17 25 0.0 3.2 0.00 0.00 0.00 1019.9
20260502122306 -17 339 1.6 3.2 0.00 0.00 0.00 1019.8
20260502121803 -17 5 1.6 11.3 0.00 0.00 0.00 1019.9
20260502121300 -17 34 1.6 3.2 0.00 0.00 0.00 1020.0
20260502120757 -17 4 1.6 3.2 0.00 0.00 0.00 1020.0
20260502120253 -17 8 0.0 3.2 0.00 0.00 0.00 1019.9
20260502115752 -17 353 0.0 3.2 0.00 0.00 0.00 1019.5
20260502115248 -17 18 0.0 0.0 0.00 0.00 0.00 1019.5
20260502114744 -17 22 0.0 0.0 0.00 0.00 0.00 1019.6
20260502114241 -17 12 0.0 1.6 0.00 0.00 0.00 1019.6
20260502113738 -17 15 0.0 0.0 0.00 0.00 0.00 1019.3
20260502113236 -17 14 0.0 0.0 0.00 0.00 0.00 1019.3
20260502112734 -17 13 0.0 0.0 0.00 0.00 0.00 1019.6
20260502112231 -17 14 0.0 0.0 0.00 0.00 0.00 1019.7
20260502111728 -17 13 0.0 0.0 0.00 0.00 0.00 1019.7
20260502111226 -17 14 0.0 0.0 0.00 0.00 0.00 1019.6
20260502110723 -17 13 0.0 0.0 0.00 0.00 0.00 1019.4
20260502110221 -17 7 0.0 0.0 0.00 0.00 0.00 1019.6
20260502105719 -17 5 0.0 0.0 0.00 0.00 0.00 1019.5
20260502105215 -17 6 0.0 0.0 0.00 0.00 0.00 1019.6
20260502104712 -17 6 0.0 0.0 0.00 0.00 0.00 1019.5
20260502104210 -17 6 0.0 0.0 0.00 0.00 0.00 1019.5
20260502103707 -17 6 0.0 0.0 0.00 0.00 0.00 1019.4
20260502103205 -17 6 0.0 0.0 0.00 0.00 0.00 1019.5
20260502102701 -17 6 0.0 0.0 0.00 0.00 0.00 1019.4
20260502102158 -17 6 0.0 0.0 0.00 0.00 0.00 1019.7
20260502101656 -17 7 0.0 0.0 0.00 0.00 0.00 1019.7
20260502101154 -17 11 0.0 0.0 0.00 0.00 0.00 1019.5
20260502100652 -17 11 0.0 0.0 0.00 0.00 0.00 1019.7
20260502100150 -17 23 0.0 0.0 0.00 0.00 0.00 1019.7
20260502091124 -17 6 0.0 0.0 0.00 0.00 0.00 1019.7
20260502090621 -17 6 0.0 0.0 0.00 0.00 0.00 1019.8
20260502090119 -17 8 0.0 0.0 0.00 0.00 0.00 1019.8
20260502071516 -17 4 0.0 0.0 0.00 0.00 0.00 1019.2
20260502071014 -17 19 0.0 1.6 0.00 0.00 0.00 1019.3
20260502070512 -17 25 0.0 1.6 0.00 0.00 0.00 1019.4
20260502070010 -17 46 3.2 3.2 0.00 0.00 0.00 1019.4
20260502065508 -17 27 1.6 1.6 0.00 0.00 0.00 1019.4
20260502065006 -17 21 0.0 0.0 0.00 0.00 0.00 1019.5
20260502064504 -17 11 0.0 0.0 0.00 0.00 0.00 1019.5
20260502064000 -17 9 0.0 0.0 0.00 0.00 0.00 1019.6
20260502063459 -17 11 0.0 0.0 0.00 0.00 0.00 1019.4